Home > Weather > Langenthal > Past weeks

Flag for Switzerland Past Weather in Langenthal, Bern, Switzerland — Yesterday and Last 2 Weeks

Now
57 °F

Cool.


Feels Like: 57 °F
Forecast: 58 / 81 °F
Wind: 1 mph from Southwest

Location: Wynau

Current Time: Jul 28, 2016 at 4:56:03 AM

Latest Report: Jul 28, 2016 at 4:00 AM


Visibility: N/A

Pressure: 30.11 "Hg

Humidity: 97%

Dew Point: 56 °F

Location of LangenthalLocation

Past Weather in Langenthal — Graph

°F

Langenthal Temperature Yesterday

Maximum temperature yesterday: 79 °F (at 4:00 PM)
Minimum temperature yesterday: 62 °F (at 6:00 AM)
Average temperature yesterday: 70 °F

High & Low Weather Summary for the Past Weeks

 TemperatureHumidityPressure
High90 °F (Jul 20, 5:00 PM)100% (Jul 15, 3:00 AM)30.37 "Hg (Jul 15, 3:00 AM)
Low46 °F (Jul 16, 6:00 AM)31% (Jul 19, 5:00 PM)29.88 "Hg (Jul 20, 6:00 PM)
Average66 °F76%30.10 "Hg
* Reported Jul 13 3:00 AM — Jul 28 3:00 AM, Langenthal, Weather by CustomWeather, © 2016

Note: Actual official high and low records may vary slightly from our data, if they occured in-between our weather recording intervals... More about our weather records

Advertising

Langenthal Weather History for the Previous 24 Hours

Scroll right to see more
 ConditionsComfort  
Time TempWeatherWind HumidityBarometerVisibility
3:00 AM
Thu, Jul 28
58 °FCool.1 mph94%30.11 "HgN/A
2:00 AM58 °FCool.No wind91%30.11 "HgN/A
1:00 AM59 °FCool.1 mph91%30.10 "HgN/A
12:00 AM60 °FCool.No wind91%30.10 "HgN/A
11:00 PM
Wed, Jul 27
62 °FCool.2 mph81%30.09 "HgN/A
10:00 PM66 °FMild.1 mph71%30.08 "HgN/A
9:00 PM71 °FMild.3 mph52%30.04 "HgN/A
8:00 PM73 °FMild.3 mph49%30.03 "HgN/A
7:00 PM77 °FMild.6 mph42%29.98 "HgN/A
6:00 PM79 °FWarm.6 mph41%29.98 "HgN/A
5:00 PM79 °FWarm.7 mph45%29.98 "HgN/A
4:00 PM79 °FWarm.3 mph52%29.98 "HgN/A
3:00 PM76 °FMild.2 mph54%30.01 "HgN/A
2:00 PM77 °FWarm.1 mph58%30.01 "HgN/A
1:00 PM76 °FMild.3 mph57%30.02 "HgN/A
12:00 PM72 °FMild.2 mph64%30.06 "HgN/A
11:00 AM69 °FMild.No wind84%30.08 "HgN/A
10:00 AM67 °FMild.2 mph86%30.08 "HgN/A
9:00 AM67 °FMild.2 mph86%30.08 "HgN/A
8:00 AM65 °FMild.1 mph92%30.08 "HgN/A
7:00 AM63 °FMild.1 mph92%30.08 "HgN/A
6:00 AM62 °FCool.1 mph98%30.08 "HgN/A
5:00 AM62 °FCool.2 mph97%30.07 "HgN/A
4:00 AM64 °FMild.1 mph93%30.07 "HgN/A
Weather by CustomWeather, © 2016

See weather overviewHow to use our weather pages